TimeEDT,TemperatureF,Dew PointF,Humidity,Sea Level PressureIn,VisibilityMPH,Wind Direction,Wind SpeedMPH,Gust SpeedMPH,PrecipitationIn,Events,Conditions,WindDirDegrees,DateUTC
12:04 AM,55.4,51.8,88,29.61,10.0,West,5.8,-,N/A,,Overcast,260,2013-10-07 04:04:00
12:54 AM,54.0,51.1,90,29.62,10.0,WSW,6.9,-,N/A,,Overcast,250,2013-10-07 04:54:00
1:54 AM,53.1,50.0,89,29.60,10.0,SW,5.8,-,N/A,,Clear,230,2013-10-07 05:54:00
2:54 AM,52.0,48.0,86,29.59,10.0,SW,8.1,-,N/A,,Clear,220,2013-10-07 06:54:00
3:54 AM,50.0,46.9,89,29.57,10.0,SW,5.8,-,N/A,,Clear,220,2013-10-07 07:54:00
4:54 AM,48.9,46.0,90,29.58,10.0,SW,8.1,-,N/A,,Clear,220,2013-10-07 08:54:00
5:54 AM,48.9,45.0,86,29.58,10.0,SW,6.9,-,N/A,,Scattered Clouds,220,2013-10-07 09:54:00
6:54 AM,48.0,45.0,89,29.59,10.0,SW,8.1,-,N/A,,Clear,220,2013-10-07 10:54:00
7:54 AM,50.0,46.0,86,29.58,10.0,SW,9.2,-,N/A,,Overcast,230,2013-10-07 11:54:00
8:25 AM,50.0,46.4,87,29.59,10.0,West,5.8,-,0.00,,Overcast,260,2013-10-07 12:25:00
8:54 AM,51.1,48.0,89,29.60,10.0,WSW,8.1,-,0.00,,Overcast,250,2013-10-07 12:54:00
9:02 AM,51.8,48.2,88,29.60,10.0,WSW,6.9,-,N/A,,Overcast,240,2013-10-07 13:02:00
9:54 AM,51.1,48.9,92,29.62,2.5,Variable,4.6,-,0.00,Rain,Light Rain,0,2013-10-07 13:54:00
10:10 AM,50.0,48.2,94,29.62,3.0,West,8.1,-,0.01,Rain,Light Rain,260,2013-10-07 14:10:00
10:45 AM,50.0,48.2,94,29.63,5.0,West,8.1,-,0.02,Rain,Light Rain,280,2013-10-07 14:45:00
10:54 AM,50.0,48.0,93,29.65,8.0,West,10.4,18.4,0.02,Rain,Light Rain,270,2013-10-07 14:54:00
11:07 AM,50.0,48.2,94,29.64,10.0,WNW,8.1,-,0.00,Rain,Light Rain,290,2013-10-07 15:07:00
11:20 AM,50.0,48.2,94,29.65,10.0,WNW,8.1,-,0.01,Rain,Light Rain,290,2013-10-07 15:20:00
11:54 AM,50.0,46.9,89,29.67,10.0,West,9.2,-,0.01,,Overcast,280,2013-10-07 15:54:00
12:54 PM,53.1,46.0,77,29.69,10.0,WNW,12.7,19.6,N/A,,Mostly Cloudy,290,2013-10-07 16:54:00
1:08 PM,53.6,44.6,72,29.68,10.0,WNW,13.8,21.9,N/A,,Mostly Cloudy,300,2013-10-07 17:08:00
1:28 PM,53.6,42.8,67,29.69,10.0,NW,9.2,18.4,N/A,,Mostly Cloudy,310,2013-10-07 17:28:00
1:43 PM,53.6,42.8,67,29.69,10.0,WNW,10.4,23.0,N/A,,Mostly Cloudy,300,2013-10-07 17:43:00
1:54 PM,55.0,43.0,64,29.70,10.0,NW,11.5,20.7,N/A,,Mostly Cloudy,310,2013-10-07 17:54:00
2:54 PM,54.0,41.0,62,29.73,10.0,NW,13.8,24.2,N/A,,Mostly Cloudy,310,2013-10-07 18:54:00
3:54 PM,53.1,42.1,66,29.78,10.0,West,9.2,-,N/A,,Overcast,270,2013-10-07 19:54:00
4:54 PM,55.9,46.0,69,29.80,10.0,Variable,6.9,16.1,0.00,Rain,Light Rain,0,2013-10-07 20:54:00
5:13 PM,53.6,48.2,82,29.82,9.0,NW,8.1,-,0.04,Rain,Light Rain,310,2013-10-07 21:13:00
5:22 PM,53.6,48.2,82,29.82,10.0,NNW,9.2,-,0.04,,Mostly Cloudy,340,2013-10-07 21:22:00
5:54 PM,52.0,46.9,83,29.86,10.0,NNW,10.4,-,0.04,,Mostly Cloudy,340,2013-10-07 21:54:00
6:54 PM,50.0,46.9,89,29.90,10.0,NW,5.8,-,0.00,,Partly Cloudy,320,2013-10-07 22:54:00
7:54 PM,48.9,46.0,90,29.94,10.0,Calm,Calm,-,N/A,,Partly Cloudy,0,2013-10-07 23:54:00
8:54 PM,46.9,42.1,83,29.98,10.0,West,3.5,-,N/A,,Clear,280,2013-10-08 00:54:00
9:54 PM,46.0,41.0,83,30.01,10.0,West,3.5,-,N/A,,Partly Cloudy,270,2013-10-08 01:54:00
10:54 PM,45.0,39.9,82,30.05,10.0,WSW,3.5,-,N/A,,Partly Cloudy,240,2013-10-08 02:54:00
11:54 PM,42.1,39.0,89,30.07,10.0,Calm,Calm,-,N/A,,Clear,0,2013-10-08 03:54:00